Probability
46 46 41 27 11 2 0 0 0 0 0 0 0 0 1 3 5 4 12 32 43 30 17 20 20 14 8 4 1 0 0 0 0 0 0 0 0 0 0 0 0 0 0 0 0 0 0 0 0
49 49 41 24 9 1 0 0 0 0 0 0 0 1 3 7 9 10 21 40 42 25 15 17 20 16 9 4 1 0 0 0 0 0 0 0 0 0 0 0 0 0 0 0 0 0 0 0 0
52 48 36 19 5 0 0 0 0 0 0 0 1 5 14 20 21 24 35 43 35 20 12 15 19 17 11 6 3 1 0 0 0 0 0 0 0 0 0 0 0 0 0 0 0 0 0 0 0
51 42 27 12 3 0 0 0 0 0 0 0 2 13 32 43 41 40 44 42 31 19 14 15 18 16 11 6 3 1 0 0 0 0 0 0 0 0 0 0 0 0 0 0 0 0 0 0 0
43 33 17 5 1 0 0 0 0 0 0 0 5 23 48 59 56 51 48 44 35 26 18 15 17 15 10 5 2 0 0 0 0 0 0 0 0 0 0 0 0 0 0 0 0 0 0 0 0
30 21 8 2 0 0 0 0 0 0 0 1 10 33 56 64 62 57 54 51 45 35 22 15 16 13 8 4 1 0 0 0 0 0 0 0 0 0 0 0 0 0 0 0 0 0 0 0 0
14 9 3 0 0 0 0 0 0 0 0 2 13 39 62 68 66 67 66 63 54 40 25 15 12 9 6 3 1 0 0 0 0 0 0 0 0 0 0 0 0 0 0 0 0 0 0 0 0
4 2 0 0 0 0 0 0 0 0 2 7 21 46 67 73 74 79 81 76 65 47 27 15 10 7 4 2 1 0 0 0 0 0 0 0 0 0 0 0 0 0 0 0 0 0 0 0 0
1 0 0 0 0 0 0 0 0 1 4 14 33 55 68 72 77 83 86 84 76 60 38 21 12 7 3 1 0 0 0 0 0 0 0 0 0 0 0 0 0 0 0 0 0 0 0 0 0
1 0 0 0 0 0 0 0 0 1 5 18 37 53 60 65 71 78 82 84 82 72 54 34 19 10 6 4 1 0 0 0 0 0 0 0 0 0 0 0 0 0 0 0 0 0 0 0 0
1 0 0 0 0 0 0 0 0 0 4 15 29 41 49 56 63 69 74 77 78 73 65 50 31 19 15 10 5 2 1 0 0 0 0 0 0 0 0 0 0 0 0 0 0 0 0 0 0
0 0 0 0 0 0 0 0 0 0 3 11 21 31 39 47 55 61 66 70 71 69 68 61 45 33 26 17 10 6 3 1 0 0 0 0 0 0 0 0 0 0 0 0 0 0 0 0 0
0 0 0 0 0 0 0 0 0 0 3 10 18 25 31 37 44 51 59 66 67 66 68 66 57 47 36 26 17 12 7 3 1 0 0 0 0 0 0 0 0 0 0 0 0 0 0 0 0
0 0 0 0 0 0 0 0 0 1 4 10 16 21 24 28 34 43 53 62 64 63 64 65 62 55 46 37 27 18 12 7 4 1 0 0 0 0 0 0 0 0 0 0 0 0 0 0 0
0 0 0 0 0 0 0 0 0 1 3 7 12 19 23 24 28 36 46 54 58 61 64 66 65 62 55 46 36 27 18 11 7 4 1 0 0 0 0 0 0 0 0 0 0 0 0 0 0
0 0 0 0 0 0 0 0 0 0 2 5 10 17 22 22 23 29 39 45 51 62 70 72 73 71 64 55 47 37 27 18 12 6 2 0 0 0 0 0 0 0 0 0 0 0 0 0 0
0 0 0 0 0 0 0 0 0 0 1 4 8 14 19 19 20 24 32 39 46 59 72 79 81 80 75 67 58 48 37 26 16 8 3 1 0 0 0 0 0 0 0 0 0 0 0 0 0
0 0 0 0 0 0 0 0 0 0 1 3 7 12 16 17 17 20 26 33 42 53 66 77 82 84 82 75 66 57 43 30 20 12 5 2 1 1 1 0 0 0 0 0 0 0 0 0 0
0 0 0 0 0 0 0 0 0 0 1 2 5 9 13 14 13 14 19 27 36 44 56 68 77 82 82 77 69 59 45 30 20 14 9 4 2 2 1 0 0 0 0 0 0 0 0 0 0
0 0 0 0 0 0 0 0 0 0 0 1 3 6 9 9 7 7 11 20 28 37 48 60 71 78 80 76 67 57 44 30 19 14 11 8 5 3 1 1 1 0 0 0 0 0 0 0 0
0 0 0 0 0 0 0 0 0 0 0 0 1 2 4 4 3 4 8 14 22 30 42 54 63 72 76 74 66 57 47 33 22 16 14 12 8 5 3 3 2 1 0 0 0 0 0 0 0
0 0 0 0 0 0 0 0 0 0 0 0 0 0 1 2 2 4 8 13 17 22 33 45 55 62 68 69 66 60 50 38 28 22 17 13 10 7 5 4 3 2 0 0 0 0 0 0 0
0 0 0 0 0 0 0 0 0 0 0 0 0 0 1 1 1 3 7 12 14 16 23 34 44 50 56 62 63 58 48 38 30 24 19 15 11 9 8 6 5 3 3 3 2 1 1 1 1
0 0 0 0 0 0 0 0 0 0 0 0 0 0 0 0 1 2 6 9 11 12 15 22 30 36 42 50 55 53 45 35 29 25 20 17 14 13 12 10 8 7 7 6 6 4 3 3 3
0 0 0 0 0 0 0 0 0 0 0 0 0 0 0 0 1 3 5 6 8 9 11 15 19 23 28 36 44 46 43 35 29 26 21 16 15 16 15 12 11 10 9 8 7 6 5 5 4
0 0 0 0 0 0 0 0 0 0 0 0 0 0 0 0 1 2 3 3 4 6 8 10 13 14 17 25 31 35 36 32 27 24 19 15 14 14 13 13 12 12 10 8 8 8 7 5 4
0 0 0 0 0 0 0 0 0 0 0 0 0 0 0 0 1 1 1 1 1 3 5 6 7 7 10 15 20 22 23 22 19 17 14 12 11 10 9 10 11 11 10 8 8 7 5 3 2
0 0 0 0 0 0 0 0 0 0 0 0 0 0 0 0 0 0 0 0 0 1 2 3 3 3 5 7 10 13 13 12 11 9 8 7 6 5 4 4 6 6 6 5 4 3 2 1 0
0 0 0 0 0 0 0 0 0 0 0 0 0 0 0 0 0 0 0 0 0 0 1 1 0 1 2 4 5 7 8 8 8 7 5 4 2 1 1 0 1 1 2 1 1 1 0 0 0
0 0 0 0 0 0 0 0 0 0 0 0 0 0 0 0 0 0 0 0 0 0 0 0 0 0 1 3 4 5 6 7 7 7 5 3 2 1 0 0 0 0 0 0 0 0 0 0 0
Wind_Speed
9 10 8 3 3 6 12 12 11 9 6 1 3 4 4 7 5 8 6 14 20 19 18 17 18 18 18 17 16 15 14 14 13 13 13 13 13 13 14 14 15 16 16 16 17 16 17 17 16
8 9 5 3 6 9 12 13 11 6 1 3 4 3 3 7 8 8 8 16 20 19 17 16 17 18 18 17 16 15 14 14 13 13 13 13 14 14 14 15 16 16 16 16 16 16 16 15 14
10 8 4 4 8 12 12 12 9 4 3 3 2 1 2 5 7 6 11 17 18 17 15 17 17 18 18 17 16 15 14 14 13 13 13 13 14 14 14 15 16 16 16 16 16 15 15 14 13
5 4 4 7 14 16 13 9 7 5 3 2 3 3 4 6 4 7 13 15 17 16 15 17 17 18 17 16 16 15 14 13 13 13 13 13 14 14 14 15 15 15 14 15 15 14 14 13 12
4 4 7 10 16 15 12 6 2 6 5 4 5 4 5 4 6 10 11 13 15 15 16 17 17 18 17 16 15 14 14 13 13 13 13 14 14 14 14 14 14 14 14 14 14 13 13 12 10
4 4 8 13 17 16 11 6 2 4 6 7 6 4 5 3 6 8 9 11 14 15 16 15 16 16 16 15 15 14 13 13 13 13 13 14 14 14 13 13 13 13 13 13 12 12 12 11 9
5 5 10 15 15 14 11 7 5 5 5 5 3 4 7 5 6 7 8 10 13 15 15 13 12 13 14 14 13 13 12 12 11 12 13 13 13 13 13 11 11 11 11 11 11 11 10 9 8
5 4 11 15 14 13 9 7 6 5 3 1 1 3 8 8 7 7 7 9 12 13 14 13 12 11 10 10 12 12 12 11 11 12 12 12 11 11 11 10 9 10 10 10 10 9 9 8 6
4 6 11 15 12 8 7 7 6 3 1 2 5 7 11 12 9 8 7 8 9 12 11 12 12 11 10 10 11 11 11 11 11 10 12 11 7 7 6 9 9 9 9 8 8 8 7 6 3
5 7 12 11 9 6 5 4 5 4 4 2 6 10 12 10 9 8 8 9 10 11 11 10 11 10 10 10 9 7 7 8 7 7 8 6 5 6 8 10 9 8 8 7 7 6 6 4 3
6 8 10 10 6 3 2 2 4 6 6 6 8 11 10 10 9 9 8 8 9 10 10 10 9 10 9 7 7 5 5 5 6 9 8 5 5 6 6 4 4 5 6 4 4 4 4 4 3
8 10 9 8 3 2 3 3 6 6 5 4 7 10 9 10 10 9 9 9 8 9 9 9 9 8 9 7 6 5 4 4 4 6 6 4 4 4 5 4 5 4 3 4 4 3 5 4 3
10 8 8 5 2 4 5 6 6 5 4 3 6 8 7 8 8 8 8 8 8 8 8 8 8 8 8 7 5 5 5 4 4 4 4 5 4 4 4 4 4 4 3 4 4 4 3 3 3
5 6 5 4 3 5 6 7 6 6 3 4 6 6 7 6 7 6 7 8 8 8 8 7 8 8 7 6 5 5 5 4 4 4 4 5 4 4 4 3 3 3 2 3 3 3 2 2 2
3 3 4 5 5 4 4 8 9 7 5 5 6 6 7 5 5 5 6 7 8 8 8 8 7 7 7 7 6 4 4 5 4 4 4 5 4 4 3 3 3 3 3 3 2 2 1 1 1
2 3 5 7 8 6 5 9 11 8 7 6 6 6 7 6 7 6 5 5 6 7 8 8 7 7 7 6 5 4 4 4 4 4 4 5 5 5 4 3 3 3 3 2 2 1 1 1 1
3 5 7 7 10 8 8 7 8 8 8 7 7 7 7 7 7 6 6 5 6 7 8 8 7 7 7 6 5 4 4 4 4 4 4 4 5 6 5 3 3 3 3 2 2 2 2 2 2
5 6 7 8 8 10 10 7 5 6 8 8 7 7 7 8 8 7 6 5 5 5 7 8 7 7 6 5 4 3 3 3 3 3 4 5 4 5 5 3 3 3 3 3 2 3 2 2 2
2 3 5 6 4 7 10 10 8 7 7 8 8 8 8 8 7 6 6 6 5 4 5 7 7 7 6 4 5 4 4 3 3 3 4 4 4 5 4 3 3 3 3 3 4 3 4 3 2
3 3 4 3 4 4 6 9 8 8 9 8 8 8 8 7 6 6 6 6 6 6 5 5 7 7 6 5 4 3 4 3 3 3 3 4 4 4 4 4 3 3 3 4 4 3 2 2 3
3 3 4 2 1 3 4 7 10 10 10 9 8 7 8 9 8 7 7 7 6 5 6 5 6 7 7 6 4 3 3 2 2 3 3 4 4 4 4 4 3 3 3 3 4 4 4 3 3
3 3 4 3 3 3 5 4 8 11 11 12 10 9 8 8 8 7 7 8 7 6 5 5 5 6 6 7 6 6 5 4 5 4 4 4 4 4 4 4 3 3 3 3 3 3 3 3 3
1 1 2 3 3 2 5 4 6 10 11 13 12 11 10 8 7 7 7 7 7 6 5 4 5 5 6 7 7 6 5 4 3 4 5 4 3 3 3 3 3 3 3 3 3 3 3 3 4
0 0 1 1 1 3 7 7 5 8 13 12 12 10 9 7 7 6 6 7 6 6 5 4 5 5 5 6 6 6 6 5 4 4 4 3 3 3 3 3 3 2 2 2 2 2 3 3 4
1 2 1 2 3 5 7 6 6 5 6 6 7 8 7 6 6 5 6 6 7 7 5 5 6 5 5 5 5 5 5 5 5 4 4 4 3 2 3 3 2 2 2 2 2 2 2 3 3
3 2 1 2 3 2 4 6 4 2 1 2 2 3 4 5 5 5 6 6 6 6 6 5 6 5 5 5 4 4 4 3 3 3 3 3 2 3 3 2 2 2 1 1 1 1 2 2 3
2 3 3 3 2 2 4 4 3 2 2 2 2 2 3 3 4 4 5 5 5 6 6 6 6 5 4 4 5 4 4 4 3 3 3 3 2 2 2 2 2 1 1 1 2 2 2 2 2
2 2 2 2 2 2 4 5 4 5 5 4 4 3 3 3 4 4 4 4 4 4 4 5 5 5 4 4 4 4 4 4 4 4 4 4 3 2 2 2 2 1 1 1 1 1 1 2 1
4 3 3 3 3 2 2 1 3 3 3 3 3 3 3 3 4 4 4 4 4 4 4 4 5 5 5 4 4 4 4 4 4 4 4 3 3 2 2 2 2 1 1 1 1 1 1 2 1
3 3 3 2 4 3 2 2 3 4 4 3 3 3 3 3 3 4 4 4 4 4 4 4 5 5 5 4 5 4 4 5 5 4 4 3 3 3 2 2 2 1 1 1 1 1 1 1 1
Wind_Direction
271 261 250 236 227 223 232 237 238 224 217 208 26 353 30 46 64 112 141 126 125 132 138 139 136 135 134 131 129 126 124 122 118 113 108 104 101 97 96 95 95 95 94 93 92 91 90 89 87
270 259 242 222 219 218 221 228 235 225 169 74 52 354 34 75 82 108 128 124 129 133 140 141 137 136 134 132 131 129 127 125 121 116 112 106 103 98 97 94 95 94 92 92 92 92 90 89 87
262 253 225 213 222 221 218 212 219 211 97 98 120 302 27 68 94 111 121 129 130 134 141 137 139 137 135 134 133 132 130 127 122 117 115 110 106 101 99 96 96 95 94 94 94 93 91 89 87
245 222 231 223 223 225 236 217 189 167 131 159 174 133 82 39 61 112 125 132 133 137 134 138 140 138 137 137 135 134 133 130 125 120 117 113 109 105 102 101 100 99 98 98 96 95 92 89 86
233 214 214 220 224 223 234 250 163 155 162 192 212 149 92 52 83 114 134 137 136 135 133 143 140 140 140 139 137 136 134 132 130 126 122 117 113 111 108 107 105 103 103 101 99 97 93 89 84
210 211 208 214 218 219 219 231 210 194 187 194 203 160 102 107 110 133 141 137 134 132 135 143 140 140 140 141 140 138 137 136 134 130 125 120 117 115 114 112 111 108 107 104 102 100 96 91 84
213 207 214 213 216 217 210 199 199 213 204 195 202 140 119 123 124 137 138 137 131 132 136 142 144 142 141 141 141 139 138 136 132 130 124 119 119 119 118 116 114 113 111 108 106 103 99 95 88
227 225 221 220 216 218 201 195 200 213 218 253 349 128 134 135 134 134 136 132 130 134 141 148 150 149 147 142 141 139 138 134 128 126 124 122 122 123 124 118 112 114 114 113 111 109 107 104 100
233 226 218 218 219 217 198 200 196 181 166 40 49 64 117 132 135 134 135 131 136 142 147 152 154 155 152 149 146 140 138 134 130 128 134 137 140 137 136 121 118 118 119 120 121 122 125 127 135
211 220 224 230 232 229 221 203 185 162 173 154 98 95 118 132 139 148 153 150 150 150 153 155 157 156 154 151 150 152 150 149 155 148 157 175 160 139 127 126 127 129 130 131 138 149 161 174 183
214 231 233 246 272 339 277 222 212 177 188 175 151 135 138 144 153 160 164 161 158 155 155 158 158 155 151 147 158 157 156 164 169 159 177 174 134 124 126 137 136 143 153 157 160 179 212 213 183
225 241 241 254 325 340 282 243 233 197 200 170 146 137 149 158 164 168 171 169 165 162 159 159 158 154 152 153 154 151 151 162 158 160 171 153 138 143 152 159 168 171 182 173 179 209 216 206 182
229 237 238 246 284 277 273 263 255 243 201 162 127 135 159 168 169 170 171 165 164 168 165 160 158 159 156 151 150 154 152 158 149 149 163 148 142 159 158 162 165 179 178 165 195 222 203 192 210
224 243 250 236 239 252 246 263 251 253 217 163 153 166 177 186 172 168 166 165 168 172 172 164 161 160 157 152 156 156 154 154 144 143 163 155 153 160 154 156 160 182 165 167 196 224 187 194 218
244 243 241 220 215 240 232 247 245 245 228 194 185 186 186 188 182 181 174 169 172 170 169 169 168 164 162 159 161 151 151 150 146 151 168 159 156 154 149 161 163 180 177 175 196 226 178 212 200
201 211 216 212 202 220 217 229 232 230 231 214 204 197 190 195 195 193 185 175 170 166 167 170 171 170 168 160 156 152 155 148 148 153 165 166 163 158 155 169 176 182 175 178 189 197 189 221 214
195 206 211 206 197 200 211 235 224 215 225 221 210 204 196 197 198 195 184 178 168 169 168 167 166 168 167 161 158 156 153 152 154 155 159 170 171 163 161 177 187 188 177 181 190 195 200 219 227
184 200 210 211 190 199 215 229 230 220 220 220 216 210 209 203 201 189 178 170 166 170 168 166 167 167 163 156 151 148 149 152 150 152 157 165 171 168 164 172 191 188 172 183 191 199 218 228 231
247 230 219 216 191 205 219 228 224 228 235 229 217 209 212 212 199 182 172 158 158 167 169 165 165 167 158 157 160 160 168 162 150 148 155 164 167 165 164 170 185 184 179 189 197 194 212 223 226
235 238 238 229 185 215 234 235 231 229 229 234 227 213 209 209 204 184 167 160 164 170 171 167 162 161 162 164 162 158 155 161 162 157 165 171 169 168 171 173 181 185 185 196 204 197 196 210 194
226 244 230 223 202 233 246 246 228 231 231 234 232 223 215 205 201 188 175 163 162 169 171 173 166 163 162 159 148 141 137 139 159 171 177 182 179 176 173 181 180 185 186 197 204 198 191 210 219
219 233 235 219 196 225 212 238 226 219 222 225 222 220 220 212 202 193 179 166 163 168 167 169 164 161 159 157 158 163 170 177 184 176 176 177 177 175 177 183 189 193 193 203 212 205 201 200 219
204 284 241 217 220 253 218 240 245 213 215 216 213 211 214 208 199 186 177 164 158 155 155 159 157 159 158 162 167 173 179 178 168 163 168 173 173 170 167 178 189 201 201 206 210 209 211 208 212
147 59 339 278 224 240 214 219 251 213 212 208 204 203 204 194 190 182 164 151 148 145 145 154 156 160 156 162 168 177 179 172 167 172 168 168 164 165 167 179 189 199 201 202 206 220 224 223 226
165 153 165 181 203 234 204 213 243 230 209 197 192 190 190 178 173 170 160 154 152 152 156 162 164 164 161 162 168 174 176 175 179 175 170 166 166 169 181 180 190 198 204 207 205 212 236 232 230
184 210 234 210 198 216 197 222 238 216 130 119 136 159 166 160 159 162 161 154 152 156 161 164 164 163 163 161 161 156 151 152 153 145 144 154 154 157 154 168 179 181 184 206 211 215 227 232 232
160 219 257 295 274 219 220 221 210 183 146 141 152 162 166 153 149 149 145 145 151 157 165 167 161 157 156 152 142 140 136 133 131 122 118 117 107 108 116 136 140 153 177 197 195 210 223 221 221
236 269 249 249 266 238 216 225 221 183 181 174 168 167 162 149 140 139 141 143 141 145 149 153 153 149 138 131 132 132 125 122 122 117 111 106 104 108 125 133 138 144 167 187 195 206 211 197 207
195 229 248 261 270 274 227 258 9 97 112 125 138 132 126 124 134 137 134 132 128 126 131 132 133 128 125 122 115 112 108 106 105 106 109 111 109 110 107 106 103 113 163 182 185 200 183 182 175
234 234 236 260 285 272 265 274 1 44 55 78 85 93 95 108 115 126 133 132 133 136 136 137 134 128 125 122 114 111 108 105 104 104 101 95 93 91 91 92 107 118 92 65 118 129 116 143 159